FW8813 Weather Reports


time (UTC)temp
C
wind
direction
speed
KPH
gust
KPH
rain 1hr
cm
rain 24hr
cm
rain mn
cm
humidity
%
barometer
mb
20260510190533 26 267 6.4 12.9 0.00 0.00 0.00 41 1015.2
20260510190047 27 271 3.2 17.7 0.00 0.00 0.00 38 1015.1
20260510185534 27 278 6.4 17.7 0.00 0.00 0.00 41 1015.2
20260510185034 27 289 6.4 11.3 0.00 0.00 0.00 38 1015.2
20260510184545 27 144 1.6 9.7 0.00 0.00 0.00 41 1015.2
20260510184035 27 231 3.2 8.0 0.00 0.00 0.00 38 1015.2
20260510183535 27 281 3.2 8.0 0.00 0.00 0.00 37 1015.4
20260510183050 27 264 3.2 11.3 0.00 0.00 0.00 39 1015.3
20260510182537 27 295 3.2 11.3 0.00 0.00 0.00 34 1015.3
20260510182033 27 302 4.8 11.3 0.00 0.00 0.00 38 1015.3
20260510181545 27 300 4.8 9.7 0.00 0.00 0.00 37 1015.2
20260510181033 27 237 4.8 9.7 0.00 0.00 0.00 38 1015.4
20260510180534 27 237 4.8 8.0 0.00 0.00 0.00 38 1015.4
20260510180051 27 126 3.2 6.4 0.00 0.00 0.00 39 1015.4
20260510175534 26 255 1.6 12.9 0.00 0.00 0.00 42 1015.6
20260510175034 26 241 3.2 12.9 0.00 0.00 0.00 37 1015.5
20260510174547 26 290 6.4 14.5 0.00 0.00 0.00 37 1015.7
20260510174036 26 313 8.0 14.5 0.00 0.00 0.00 35 1015.6
20260510173533 27 276 3.2 14.5 0.00 0.00 0.00 37 1015.7
20260510173044 26 146 3.2 14.5 0.00 0.00 0.00 38 1015.8
20260510172534 26 179 3.2 9.7 0.00 0.00 0.00 37 1015.9
20260510172033 26 283 3.2 8.0 0.00 0.00 0.00 34 1015.8
20260510171559 26 248 3.2 16.1 0.00 0.00 0.00 35 1015.9
20260510171033 26 257 3.2 16.1 0.00 0.00 0.00 37 1015.8
20260510170534 26 291 3.2 11.3 0.00 0.00 0.00 33 1015.9
20260510170047 26 267 1.6 9.7 0.00 0.00 0.00 36 1016.1
20260510165533 26 210 1.6 9.7 0.00 0.00 0.00 37 1016.2
20260510165033 26 264 4.8 9.7 0.00 0.00 0.00 35 1016.0
20260510164548 26 43 3.2 14.5 0.00 0.00 0.00 36 1016.2
20260510164033 25 291 8.0 14.5 0.00 0.00 0.00 31 1016.2
20260510163538 25 304 4.8 9.7 0.00 0.00 0.00 37 1016.2
20260510163054 25 51 1.6 9.7 0.00 0.00 0.00 35 1016.2
20260510162535 25 0 3.2 12.9 0.00 0.00 0.00 35 1016.2
20260510162033 25 280 8.0 14.5 0.00 0.00 0.00 37 1016.2
20260510161541 25 291 6.4 14.5 0.00 0.00 0.00 37 1016.3
20260510161034 25 0 3.2 9.7 0.00 0.00 0.00 35 1016.3
20260510160534 25 162 1.6 6.4 0.00 0.00 0.00 38 1016.3
20260510160051 25 263 1.6 9.7 0.00 0.00 0.00 35 1016.2
20260510155533 25 288 1.6 11.3 0.00 0.00 0.00 36 1016.2
20260510155033 25 303 6.4 12.9 0.00 0.00 0.00 33 1016.3
20260510154547 25 283 6.4 12.9 0.00 0.00 0.00 35 1016.4
20260510154033 25 349 1.6 11.3 0.00 0.00 0.00 42 1016.4
20260510153533 25 287 4.8 11.3 0.00 0.00 0.00 38 1016.5
20260510153046 25 290 3.2 11.3 0.00 0.00 0.00 37 1016.6
20260510152533 25 328 4.8 11.3 0.00 0.00 0.00 37 1016.7
20260510152033 24 293 3.2 11.3 0.00 0.00 0.00 38 1016.7
20260510151549 24 278 4.8 11.3 0.00 0.00 0.00 38 1016.7
20260510151033 24 297 3.2 12.9 0.00 0.00 0.00 39 1016.7
20260510150534 24 279 6.4 12.9 0.00 0.00 0.00 38 1016.7
20260510150052 24 255 3.2 6.4 0.00 0.00 0.00 38 1016.6
20260510145535 24 332 1.6 9.7 0.00 0.00 0.00 39 1016.6
20260510145035 24 330 1.6 9.7 0.00 0.00 0.00 44 1016.6
20260510144604 23 303 4.8 9.7 0.00 0.00 0.00 44 1016.6
20260510144033 23 297 1.6 9.7 0.00 0.00 0.00 44 1016.6
20260510143534 23 304 4.8 9.7 0.00 0.00 0.00 43 1016.6
20260510143108 23 285 3.2 11.3 0.00 0.00 0.00 48 1016.7
20260510142534 23 4 4.8 11.3 0.00 0.00 0.00 46 1016.7
20260510142034 23 300 4.8 11.3 0.00 0.00 0.00 45 1016.7
20260510141547 23 299 6.4 11.3 0.00 0.00 0.00 49 1016.6
20260510141035 23 283 3.2 6.4 0.00 0.00 0.00 48 1016.8
20260510140534 23 0 0.0 0.0 0.00 0.00 0.00 54 1016.6
20260510140048 23 0 0.0 0.0 0.00 0.00 0.00 59 1016.8
20260510135533 22 0 0.0 0.0 0.00 0.00 0.00 63 1016.8
20260510135035 22 0 0.0 0.0 0.00 0.00 0.00 62 1016.7
20260510134602 22 0 0.0 0.0 0.00 0.00 0.00 63 1016.7
20260510134036 22 0 0.0 0.0 0.00 0.00 0.00 63 1016.8
20260510133534 22 0 0.0 0.0 0.00 0.00 0.00 67 1016.8
20260510133045 21 0 0.0 0.0 0.00 0.00 0.00 63 1016.7
20260510132534 21 0 0.0 0.0 0.00 0.00 0.00 69 1016.6
20260510132035 21 0 0.0 0.0 0.00 0.00 0.00 69 1016.7
20260510131541 20 0 0.0 0.0 0.00 0.00 0.00 70 1016.6
20260510131036 20 0 0.0 0.0 0.00 0.00 0.00 71 1016.6
20260510130534 20 0 0.0 0.0 0.00 0.00 0.00 72 1016.4
20260510130048 20 0 0.0 0.0 0.00 0.00 0.00 75 1016.3
20260510125533 19 0 0.0 0.0 0.00 0.00 0.00 75 1016.4
20260510125034 18 0 0.0 0.0 0.00 0.00 0.00 75 1016.2
20260510124553 18 0 0.0 0.0 0.00 0.00 0.00 76 1016.2
20260510124033 18 0 0.0 0.0 0.00 0.00 0.00 77 1016.4
20260510123534 17 0 0.0 0.0 0.00 0.00 0.00 75 1016.4
20260510123045 17 0 0.0 0.0 0.00 0.00 0.00 76 1016.2
20260510122535 17 0 0.0 0.0 0.00 0.00 0.00 75 1016.2
20260510122033 16 0 0.0 0.0 0.00 0.00 0.00 79 1016.1
20260510121551 16 0 0.0 0.0 0.00 0.00 0.00 80 1016.0
20260510121034 16 0 0.0 0.0 0.00 0.00 0.00 83 1016.0
20260510120534 16 0 0.0 0.0 0.00 0.00 0.00 85 1015.8
20260510120046 15 0 0.0 0.0 0.00 0.00 0.00 91 1015.9
20260510115534 14 0 0.0 0.0 0.00 0.00 0.00 89 1015.8
20260510115034 13 0 0.0 0.0 0.00 0.00 0.00 89 1015.7
20260510114547 13 0 0.0 0.0 0.00 0.00 0.00 91 1015.6
20260510114034 12 0 0.0 0.0 0.00 0.00 0.00 93 1015.6
20260510113533 12 0 0.0 0.0 0.00 0.00 0.00 93 1015.4
20260510113041 11 0 0.0 0.0 0.00 0.00 0.00 94 1015.4
20260510112534 11 0 0.0 0.0 0.00 0.00 0.00 94 1015.3
20260510112038 10 0 0.0 0.0 0.00 0.00 0.00 96 1015.1
20260510111555 10 0 0.0 0.0 0.00 0.00 0.00 95 1014.9
20260510111033 10 0 0.0 0.0 0.00 0.00 0.00 95 1014.9
20260510110533 10 0 0.0 0.0 0.00 0.00 0.00 96 1014.9
20260510110045 9 0 0.0 0.0 0.00 0.00 0.00 96 1014.9
20260510105533 8 0 0.0 0.0 0.00 0.00 0.00 96 1014.9
20260510105035 8 0 0.0 0.0 0.00 0.00 0.00 97 1014.7
20260510104559 8 0 0.0 0.0 0.00 0.00 0.00 98 1014.9
20260510104037 7 0 0.0 0.0 0.00 0.00 0.00 97 1014.7
20260510103534 7 0 0.0 0.0 0.00 0.00 0.00 97 1014.6
20260510103049 7 0 0.0 0.0 0.00 0.00 0.00 97 1014.6
20260510102534 7 0 0.0 0.0 0.00 0.00 0.00 96 1014.5
20260510102034 7 0 0.0 0.0 0.00 0.00 0.00 97 1014.4
20260510101542 7 0 0.0 0.0 0.00 0.00 0.00 97 1014.3
20260510101033 7 0 0.0 0.0 0.00 0.00 0.00 97 1014.2
20260510100537 7 0 0.0 0.0 0.00 0.00 0.00 97 1014.2
20260510100046 7 0 0.0 0.0 0.00 0.00 0.00 96 1014.2
20260510095533 7 0 0.0 0.0 0.00 0.00 0.00 96 1014.1
20260510095033 7 0 0.0 0.0 0.00 0.00 0.00 96 1014.2
20260510094547 7 0 0.0 0.0 0.00 0.00 0.00 97 1013.9
20260510094033 7 0 0.0 0.0 0.00 0.00 0.00 96 1014.1
20260510093533 8 0 0.0 0.0 0.00 0.00 0.00 96 1014.0
20260510093045 8 0 0.0 0.0 0.00 0.00 0.00 97 1013.9
20260510092534 8 0 0.0 0.0 0.00 0.00 0.00 97 1013.9
20260510092037 8 0 0.0 0.0 0.00 0.00 0.00 96 1013.8
20260510091546 8 0 0.0 0.0 0.00 0.00 0.00 97 1013.8
20260510091034 8 0 0.0 0.0 0.00 0.00 0.00 97 1013.7
20260510090534 8 0 0.0 0.0 0.00 0.00 0.00 95 1013.8
20260510090042 8 0 0.0 0.0 0.00 0.00 0.00 96 1013.6
20260510085533 8 0 0.0 0.0 0.00 0.00 0.00 96 1013.5
20260510085034 8 0 0.0 0.0 0.00 0.00 0.00 96 1013.5
20260510084543 8 0 0.0 0.0 0.00 0.00 0.00 95 1013.3
20260510084034 9 0 0.0 0.0 0.00 0.00 0.00 96 1013.5
20260510083534 10 0 0.0 0.0 0.00 0.00 0.00 97 1013.4
20260510083048 9 0 0.0 0.0 0.00 0.00 0.00 97 1013.3
20260510082532 8 0 0.0 0.0 0.00 0.00 0.00 97 1013.2
20260510082033 8 0 0.0 0.0 0.00 0.00 0.00 95 1013.2
20260510081558 8 0 0.0 0.0 0.00 0.00 0.00 95 1013.1
20260510081035 8 0 0.0 0.0 0.00 0.00 0.00 95 1013.1
20260510080534 9 0 0.0 0.0 0.00 0.00 0.00 95 1013.1
20260510080046 10 0 0.0 0.0 0.00 0.00 0.00 96 1013.1
20260510075533 9 0 0.0 0.0 0.00 0.00 0.00 95 1013.0
20260510075033 10 0 0.0 0.0 0.00 0.00 0.00 95 1012.9
20260510074552 10 0 0.0 0.0 0.00 0.00 0.00 95 1012.9
20260510074033 10 0 0.0 0.0 0.00 0.00 0.00 95 1012.9
20260510073534 11 0 0.0 0.0 0.00 0.00 0.00 95 1012.9
20260510073044 11 0 0.0 0.0 0.00 0.00 0.00 97 1012.7
20260510072533 11 0 0.0 0.0 0.00 0.00 0.00 96 1012.8
20260510072035 11 0 0.0 0.0 0.00 0.00 0.00 96 1012.9
20260510071548 10 0 0.0 0.0 0.00 0.00 0.00 95 1012.8
20260510071034 11 0 0.0 0.0 0.00 0.00 0.00 95 1013.0
20260510070533 11 0 0.0 0.0 0.00 0.00 0.00 94 1012.9
20260510070044 11 0 0.0 0.0 0.00 0.00 0.00 96 1012.9
20260510065534 11 0 0.0 0.0 0.00 0.00 0.00 96 1013.0
20260510065033 12 0 0.0 0.0 0.00 0.00 0.00 96 1012.9
20260510064544 11 0 0.0 0.0 0.00 0.00 0.00 96 1013.0
20260510064033 11 0 0.0 0.0 0.00 0.00 0.00 96 1013.1
20260510063533 12 0 0.0 0.0 0.00 0.00 0.00 96 1013.1
20260510063045 12 0 0.0 0.0 0.00 0.00 0.00 97 1013.0
20260510062534 11 0 0.0 0.0 0.00 0.00 0.00 95 1013.2
20260510062033 12 0 0.0 0.0 0.00 0.00 0.00 96 1013.1
20260510061543 12 0 0.0 0.0 0.00 0.00 0.00 96 1013.2
20260510061035 12 0 0.0 0.0 0.00 0.00 0.00 96 1013.1
20260510060533 12 0 0.0 0.0 0.00 0.00 0.00 95 1013.1
20260510060052 12 0 0.0 0.0 0.00 0.00 0.00 97 1013.2
20260510055533 12 0 0.0 0.0 0.00 0.00 0.00 97 1013.2
20260510055035 12 0 0.0 0.0 0.00 0.00 0.00 96 1013.3
20260510054549 12 0 0.0 0.0 0.00 0.00 0.00 96 1013.3
20260510054033 12 0 0.0 0.0 0.00 0.00 0.00 95 1013.2
20260510053533 12 0 0.0 0.0 0.00 0.00 0.00 95 1013.2
20260510053042 12 0 0.0 0.0 0.00 0.00 0.00 96 1013.4
20260510052533 12 0 0.0 0.0 0.00 0.00 0.00 96 1013.4
20260510052033 12 0 0.0 0.0 0.00 0.00 0.00 95 1013.3
20260510051613 12 0 0.0 0.0 0.00 0.00 0.00 95 1013.5
20260510051035 12 0 0.0 0.0 0.00 0.00 0.00 94 1013.5
20260510050533 12 0 0.0 0.0 0.00 0.00 0.00 95 1013.6
20260510050048 13 0 0.0 0.0 0.00 0.00 0.00 97 1013.5
20260510045534 12 0 0.0 0.0 0.00 0.00 0.00 95 1013.4
20260510045034 12 0 0.0 0.0 0.00 0.00 0.00 95 1013.4
20260510044544 12 0 0.0 0.0 0.00 0.00 0.00 94 1013.4
20260510044035 12 0 0.0 0.0 0.00 0.00 0.00 95 1013.4
20260510043534 12 0 0.0 0.0 0.00 0.00 0.00 95 1013.5
20260510043102 12 0 0.0 0.0 0.00 0.00 0.00 94 1013.4
20260510042534 13 0 0.0 0.0 0.00 0.00 0.00 94 1013.5
20260510042033 13 0 0.0 0.0 0.00 0.00 0.00 95 1013.4
20260510041549 13 0 0.0 0.0 0.00 0.00 0.00 95 1013.5
20260510041034 13 0 0.0 0.0 0.00 0.00 0.00 94 1013.5
20260510040535 13 0 0.0 0.0 0.00 0.00 0.00 95 1013.5
20260510040043 13 0 0.0 0.0 0.00 0.00 0.00 94 1013.4
20260510035533 13 0 0.0 0.0 0.00 0.00 0.00 93 1013.5
20260510035037 13 0 0.0 0.0 0.00 0.00 0.00 92 1013.6
20260510034550 13 0 0.0 0.0 0.00 0.00 0.00 93 1013.4
20260510034033 13 0 0.0 0.0 0.00 0.00 0.00 94 1013.6
20260510033536 13 0 0.0 0.0 0.00 0.00 0.00 93 1013.4
20260510033049 13 0 0.0 0.0 0.00 0.00 0.00 92 1013.4
20260510032533 13 0 0.0 0.0 0.00 0.00 0.00 92 1013.5
20260510032034 13 0 0.0 0.0 0.00 0.00 0.00 92 1013.4
20260510031615 14 0 0.0 0.0 0.00 0.00 0.00 92 1013.2
20260510031034 14 0 0.0 0.0 0.00 0.00 0.00 92 1013.3
20260510030534 14 0 0.0 0.0 0.00 0.00 0.00 93 1013.3
20260510030044 14 0 0.0 0.0 0.00 0.00 0.00 92 1013.3
20260510025534 14 0 0.0 0.0 0.00 0.00 0.00 92 1013.1
20260510025034 14 0 0.0 0.0 0.00 0.00 0.00 92 1013.1
20260510024541 14 0 0.0 0.0 0.00 0.00 0.00 91 1013.1
20260510024033 14 0 0.0 0.0 0.00 0.00 0.00 91 1013.0
20260510023533 14 0 0.0 0.0 0.00 0.00 0.00 92 1012.9
20260510023053 14 0 0.0 0.0 0.00 0.00 0.00 91 1012.9
20260510022535 15 0 0.0 0.0 0.00 0.00 0.00 91 1013.0
20260510022035 15 0 0.0 0.0 0.00 0.00 0.00 90 1013.0
20260510021546 15 0 0.0 0.0 0.00 0.00 0.00 91 1012.8
20260510021034 15 0 0.0 0.0 0.00 0.00 0.00 90 1012.9
20260510020533 15 0 0.0 0.0 0.00 0.00 0.00 89 1012.8
20260510020048 15 0 0.0 0.0 0.00 0.00 0.00 89 1012.7
20260510015534 15 0 0.0 0.0 0.00 0.00 0.00 89 1012.5
20260510015034 15 0 0.0 0.0 0.00 0.00 0.00 89 1012.4
20260510014544 15 0 0.0 0.0 0.00 0.00 0.00 88 1012.4
20260510014037 15 0 0.0 0.0 0.00 0.00 0.00 87 1012.2
20260510013535 16 0 0.0 0.0 0.00 0.00 0.00 86 1012.2
20260510013050 16 0 0.0 0.0 0.00 0.00 0.00 86 1012.0
20260510012534 16 0 0.0 0.0 0.00 0.00 0.00 86 1011.9
20260510012034 16 0 0.0 0.0 0.00 0.00 0.00 85 1011.9
20260510011602 16 0 0.0 0.0 0.00 0.00 0.00 84 1011.8
20260510011034 16 0 0.0 0.0 0.00 0.00 0.00 84 1011.7
20260510010535 17 0 0.0 0.0 0.00 0.00 0.00 83 1011.6
20260510005535 17 0 0.0 0.0 0.00 0.00 0.00 82 1011.4
20260510005033 17 0 0.0 0.0 0.00 0.00 0.00 81 1011.3
20260510004546 17 0 0.0 0.0 0.00 0.00 0.00 80 1011.2
20260510004036 18 0 0.0 0.0 0.00 0.00 0.00 79 1011.1
20260510003535 18 0 0.0 0.0 0.00 0.00 0.00 77 1011.0
20260510003046 18 0 0.0 0.0 0.00 0.00 0.00 76 1010.9
20260510002533 18 0 0.0 0.0 0.00 0.00 0.00 75 1011.1
20260510002034 19 0 0.0 0.0 0.00 0.00 0.00 75 1011.0
20260510001544 19 0 0.0 0.0 0.00 0.00 0.00 73 1011.0
20260510001034 20 0 0.0 0.0 0.00 0.00 0.00 71 1010.9
20260510000534 20 0 0.0 0.0 0.00 0.00 0.00 70 1010.9
20260510000049 20 0 0.0 0.0 0.00 0.00 0.00 69 1010.8
20260509235533 21 0 0.0 0.0 0.00 0.00 0.00 67 1010.8
20260509235035 21 0 0.0 0.0 0.00 0.00 0.00 67 1010.8
20260509234542 21 0 0.0 0.0 0.00 0.00 0.00 67 1010.9
20260509234033 21 0 0.0 0.0 0.00 0.00 0.00 66 1010.9
20260509233535 21 0 0.0 0.0 0.00 0.00 0.00 65 1010.8
20260509233041 22 0 0.0 0.0 0.00 0.00 0.00 63 1010.6
20260509232537 22 0 0.0 0.0 0.00 0.00 0.00 63 1010.6
20260509232034 22 0 0.0 0.0 0.00 0.00 0.00 61 1010.5
20260509231554 23 0 0.0 0.0 0.00 0.00 0.00 59 1010.4
20260509231033 23 0 0.0 0.0 0.00 0.00 0.00 59 1010.3
20260509230533 23 0 0.0 0.0 0.00 0.00 0.00 58 1010.1
20260509230045 23 0 0.0 4.8 0.00 0.00 0.00 57 1010.1
20260509225534 23 0 0.0 4.8 0.00 0.00 0.00 57 1009.9
20260509225034 24 148 0.0 4.8 0.00 0.00 0.00 56 1009.8
20260509224544 24 0 0.0 1.6 0.00 0.00 0.00 56 1010.1
20260509224035 24 0 0.0 1.6 0.00 0.00 0.00 56 1010.0
20260509223534 23 165 1.6 1.6 0.00 0.00 0.00 56 1009.9
20260509223044 23 0 0.0 1.6 0.00 0.00 0.00 57 1009.9
20260509222533 23 0 0.0 4.8 0.00 0.00 0.00 57 1010.0
20260509222036 23 233 1.6 4.8 0.00 0.00 0.00 57 1010.0
20260509221543 24 276 0.0 3.2 0.00 0.00 0.00 55 1010.0
20260509221035 24 93 0.0 3.2 0.00 0.00 0.00 57 1010.0
20260509220533 23 0 0.0 0.0 0.00 0.00 0.00 58 1010.1
20260509220044 23 0 0.0 0.0 0.00 0.00 0.00 60 1010.1
20260509215534 22 0 0.0 0.0 0.00 0.00 0.00 63 1010.0
20260509215038 22 0 0.0 0.0 0.00 0.00 0.00 64 1009.9
20260509214541 22 0 0.0 0.0 0.00 0.00 0.00 61 1009.9
20260509214034 22 0 0.0 0.0 0.00 0.00 0.00 62 1010.0
20260509213534 22 0 0.0 0.0 0.00 0.00 0.00 61 1009.9
20260509213100 22 0 0.0 0.0 0.00 0.00 0.00 61 1009.9
20260509212534 22 0 0.0 0.0 0.00 0.00 0.00 58 1009.8
20260509212034 22 0 0.0 0.0 0.00 0.00 0.00 59 1009.9
20260509211609 22 0 0.0 0.0 0.00 0.00 0.00 59 1009.9
20260509211034 22 0 0.0 3.2 0.00 0.00 0.00 60 1009.6
20260509210534 22 0 0.0 3.2 0.00 0.00 0.00 58 1009.8
20260509210048 22 276 0.0 3.2 0.00 0.00 0.00 58 1009.6
20260509205533 22 262 0.0 6.4 0.00 0.00 0.00 59 1009.7
20260509205034 22 263 1.6 6.4 0.00 0.00 0.00 57 1009.6
20260509204557 22 0 0.0 3.2 0.00 0.00 0.00 57 1009.8
20260509204035 22 0 0.0 3.2 0.00 0.00 0.00 57 1009.7
20260509203533 22 0 0.0 1.6 0.00 0.00 0.00 59 1009.6
20260509203049 22 0 0.0 4.8 0.00 0.00 0.00 58 1009.5
20260509202537 22 0 0.0 4.8 0.00 0.00 0.00 59 1009.7
20260509202034 22 298 1.6 4.8 0.00 0.00 0.00 57 1009.7
20260509201547 22 275 0.0 6.4 0.00 0.00 0.00 57 1009.6
20260509201033 22 300 3.2 6.4 0.00 0.00 0.00 56 1009.7
20260509200535 22 297 3.2 6.4 0.00 0.00 0.00 56 1009.7
20260509200048 22 0 0.0 4.8 0.00 0.00 0.00 57 1009.8
20260509195533 22 0 1.6 4.8 0.00 0.00 0.00 60 1009.9
20260509195037 22 0 0.0 4.8 0.00 0.00 0.00 57 1010.0
20260509194546 22 234 0.0 12.9 0.00 0.00 0.00 58 1010.0
20260509194035 22 126 0.0 12.9 0.00 0.00 0.00 56 1010.0
20260509193539 22 111 3.2 9.7 0.00 0.00 0.00 57 1010.0
20260509193045 23 270 3.2 17.7 0.00 0.00 0.00 56 1010.0
20260509192535 23 252 3.2 17.7 0.00 0.00 0.00 55 1009.9
20260509192034 23 136 4.8 12.9 0.00 0.00 0.00 57 1009.8
20260509191542 23 261 4.8 9.7 0.00 0.00 0.00 57 1009.9
20260509191035 22 122 1.6 8.0 0.00 0.00 0.00 56 1009.9